Location: Arcueil
(48.7999°N, 2.3326°E)
Time: 18:05:11
(UTC+00:00)

JY1SAT - Pass Details

Date: 18 June 2024
Orbit: 535 x 549 km, 97.5° (Epoch: 18 July)

Event Time Altitude Azimuth Distance (km) Brightness Sun altitude
Exits shadow 21:30:21 - 199° (SSW) 2,347 ? -11.1°
Reaches altitude 10° 21:31:49 10° 209° (SSW) 1,818 ? -11.3°
Maximum altitude 21:35:07 26° 266° (W) 1,122 ? -11.6°
Drops below altitude 10° 21:38:28 10° 323° (NW) 1,840 ? -11.9°
Sets 21:40:54 0° 337° (NNW) 2,742 ? -12.1°
